Home   Weather   Amadora   Past weeks

Flag for Portugal Past Weather in Amadora, Portugal — Yesterday and Last 2 Weeks

64 °F

Scattered showers. Passing clouds.

Feels Like: 64 °F
Forecast: 59 / 67 °F
Wind: 16 mph from Southwest

Location: Lisbon Portela Airport

Current Time: Oct 23, 2016 at 10:54:41 AM

Latest Report: Oct 23, 2016 at 10:30 AM

Visibility: N/A

Pressure: 29.62 "Hg

Humidity: 68%

Dew Point: 54 °F

Location of AmadoraLocation

Past Weather in Amadora — Graph


Amadora Temperature Yesterday

Maximum temperature yesterday: 68 °F (at 1:30 PM)
Minimum temperature yesterday: 59 °F (at 11:30 PM)
Average temperature yesterday: 65 °F

High & Low Weather Summary for the Past Weeks

High79 °F (Oct 18, 2:30 PM)100% (Oct 11, 10:00 PM)30.21 "Hg (Oct 11, 10:00 PM)
Low54 °F (Oct 10, 8:00 AM)44% (Oct 19, 2:30 PM)29.56 "Hg (Oct 23, 12:00 AM)
Average64 °F82%29.93 "Hg
* Reported Oct 8 9:00 AM — Oct 23 9:30 AM, Amadora, Weather by CustomWeather, © 2016

Note: Actual official high and low records may vary slightly from our data, if they occured in-between our weather recording intervals... More about our weather records


Amadora Weather History for the Previous 24 Hours

Scroll right to see more
Time TempWeatherWind HumidityBarometerVisibility
9:30 AM
Sun, Oct 23
63 °FPassing clouds.12 mph73%29.62 "HgN/A
9:00 AM63 °FPassing clouds.13 mph73%29.62 "HgN/A
8:30 AM61 °FPassing clouds.10 mph77%29.62 "HgN/A
8:00 AM61 °FPassing clouds.13 mph72%29.59 "HgN/A
7:30 AM61 °FPassing clouds.10 mph77%29.59 "HgN/A
7:00 AM61 °FPassing clouds.13 mph77%29.59 "HgN/A
6:30 AM63 °FPassing clouds.14 mph68%29.59 "HgN/A
6:00 AM63 °FPassing clouds.15 mph68%29.56 "HgN/A
5:30 AM61 °FPassing clouds.17 mph77%29.56 "HgN/A
5:00 AM61 °FPassing clouds.13 mph83%29.56 "HgN/A
4:30 AM59 °FPassing clouds.13 mph82%29.56 "HgN/A
4:00 AM61 °FPassing clouds.18 mph88%29.59 "HgN/A
3:30 AM61 °FPassing clouds.14 mph94%29.56 "HgN/A
3:00 AM61 °FPassing clouds.16 mph94%29.56 "HgN/A
2:30 AM61 °FLight rain. Passing clouds.14 mph94%29.59 "Hg5 mi
2:00 AM61 °FPassing clouds.10 mph94%29.59 "HgN/A
1:30 AM61 °FPassing clouds.14 mph94%29.59 "Hg6 mi
1:00 AM61 °FLight rain. Passing clouds.13 mph94%29.56 "Hg5 mi
12:30 AM59 °FRain. Passing clouds.15 mph94%29.59 "Hg5 mi
12:00 AM59 °FLight rain. Passing clouds.15 mph94%29.56 "HgN/A
11:30 PM
Sat, Oct 22
59 °FRain showers. Passing clouds.16 mph94%29.59 "Hg5 mi
11:00 PM61 °FPassing clouds.14 mph94%29.59 "HgN/A
10:30 PM64 °FPassing clouds.17 mph88%29.59 "HgN/A
10:00 PM66 °FPassing clouds.17 mph88%29.59 "HgN/A
9:30 PM66 °FPassing clouds.18 mph88%29.59 "HgN/A
9:00 PM66 °FPassing clouds.17 mph88%29.59 "HgN/A
8:30 PM66 °FPassing clouds.16 mph88%29.59 "HgN/A
8:00 PM66 °FPassing clouds.17 mph94%29.59 "HgN/A
7:30 PM66 °FPartly cloudy.16 mph94%29.59 "HgN/A
7:00 PM66 °FPartly cloudy.16 mph94%29.59 "HgN/A
6:30 PM66 °FPartly sunny.17 mph94%29.59 "HgN/A
6:00 PM68 °FScattered clouds.15 mph83%29.62 "HgN/A
5:30 PM68 °FScattered clouds.17 mph83%29.62 "HgN/A
5:00 PM68 °FScattered clouds.18 mph83%29.62 "HgN/A
4:30 PM68 °FScattered clouds.15 mph88%29.62 "HgN/A
4:00 PM68 °FPartly sunny.15 mph88%29.62 "HgN/A
3:30 PM68 °FPartly sunny.17 mph88%29.62 "HgN/A
3:00 PM68 °FPartly sunny.16 mph88%29.62 "HgN/A
2:30 PM68 °FScattered clouds.15 mph88%29.62 "HgN/A
2:00 PM68 °FPartly sunny.13 mph88%29.65 "HgN/A
1:30 PM68 °FLight rain. Partly sunny.9 mph88%29.65 "HgN/A
1:00 PM66 °FSprinkles. Broken clouds.6 mph94%29.68 "Hg6 mi
12:30 PM66 °FScattered showers. Broken clouds.7 mph94%29.68 "HgN/A
12:00 PM64 °FSprinkles. Broken clouds.6 mph94%29.71 "HgN/A
11:30 AM64 °FScattered showers. Broken clouds.6 mph94%29.71 "HgN/A
11:00 AM66 °FBroken clouds.5 mph94%29.71 "HgN/A
10:30 AM64 °FBroken clouds.5 mph94%29.71 "HgN/A
10:00 AM64 °FScattered showers. Broken clouds.2 mph94%29.71 "HgN/A
Weather by CustomWeather, © 2016

See weather overviewHow to use our weather pages